[[{"header":{"parameterUnit":"m.s-1","parameterCategory":1,"la1":30.2991,"la2":30.254,"lo1":-89.0895,"lo2":-89.0444,"dy":0.0017,"dx":0.0017,"nx":28,"ny":28,"refTime":"2025-03-19T21:00:00:Z","depth":0,"parameterNumber":2,"parameterNumberName":"U-component_of_WINDS"},"data":[0,0,0,0,0,0,0,0,0,0,0,0,0,0,0,0,0,0,0,0,0,0,0,0,0,0,0,0,0,0,0,0,0,0,0,0,0,0,0,0,0,0,0,0,0,0,0,0,0,0,0,0,0,0,0,0,0,0,2.4279,2.428,0,2.4301,2.4302,2.4302,2.4251,2.4249,2.4248,2.4246,2.4267,2.4269,2.4271,0,0,0,0,0,0,0,0,0,0,0,0,0,2.4193,2.4195,2.4279,2.428,2.428,2.4301,2.4302,2.4302,2.4251,2.4249,2.4247,2.4245,2.4267,2.4269,2.4272,0,0,0,0,0,0,0,0,0,0,0,0,0,2.4224,2.4195,2.4279,2.4257,2.4255,2.4301,2.4302,2.4302,2.4252,2.4249,2.4247,2.4244,2.4266,2.4269,2.4272,2.434,0,0,2.4281,2.4283,0,0,0,0,0,0,0,0,2.4223,2.4228,2.426,2.4259,2.4257,2.4271,2.4279,2.4315,2.4252,2.4253,2.4246,2.4243,2.427,2.4273,2.4282,2.4341,2.4342,2.4282,2.4284,2.4285,2.4286,0,0,0,0,0,0,0,2.4221,2.4226,2.4288,2.4261,2.4259,2.4246,2.4248,2.4286,2.4275,2.4253,2.4249,2.4252,2.4269,2.428,2.4283,2.4342,2.4282,2.4284,2.4286,2.4288,2.446,2.4463,0,0,0,0,0,0,2.4221,2.4225,2.4287,2.4289,2.4233,2.425,2.4252,2.4269,2.4274,2.4273,2.4254,2.425,2.4275,2.4279,2.4283,2.4364,2.4285,2.4288,2.429,2.4457,2.4461,2.4464,0,0,0,0,0,0,2.422,2.4227,2.4286,2.4256,2.4262,2.4254,2.4273,2.4271,2.4281,2.4276,2.4274,2.4267,2.4274,2.4279,2.4327,2.4364,2.4289,2.4292,2.4454,2.4458,2.4462,2.4527,0,0,0,0,0,0,2.4217,2.4227,2.4253,2.4257,2.4264,2.433,2.4276,2.4273,2.4287,2.4281,2.4287,2.4286,2.4272,2.4322,2.433,2.4367,2.4295,2.4451,2.4456,2.4461,2.4521,2.4532,2.4542,0,0,0,0,0,2.4214,2.4269,2.4254,2.4262,2.4296,2.4332,2.4336,2.432,2.429,2.4316,2.4313,2.4286,2.4359,2.4328,2.4336,2.4375,2.4448,2.4455,2.446,2.4516,2.453,2.4542,0,0,0,0,0,0,2.4268,2.4269,2.4252,2.431,2.4322,2.4323,2.4355,2.4334,2.4354,2.4348,2.4326,2.4328,2.4381,2.4382,2.4347,2.4442,2.4399,2.4407,2.4439,2.4452,2.4462,2.446,2.4297,0,0,0,0,0,2.4287,2.4316,2.4315,2.4366,2.4373,2.4364,2.4378,2.4365,2.4376,2.438,2.438,2.4392,2.4418,2.4435,2.4458,2.4522,2.4523,2.4552,2.4563,2.4572,2.4579,2.4614,2.4627,2.4484,2.4484,2.4483,0,0,2.4325,2.433,2.4349,2.4377,2.4385,2.4416,2.4368,2.4402,2.4425,2.4385,2.4431,2.4432,2.4443,2.45,2.4525,2.4503,2.4619,2.4579,2.4586,2.4588,2.4621,2.4635,2.4647,2.4488,2.4487,2.4486,0,0,2.4411,2.4418,2.4461,2.447,2.4483,2.4476,2.4487,2.4493,2.4492,2.4538,2.4509,2.4537,2.4581,2.4591,2.4601,2.4695,2.4671,2.4703,2.4757,2.4792,2.4803,2.4813,2.4847,2.486,2.471,2.471,2.471,0,2.4457,2.4503,2.4486,2.4524,2.4537,2.4504,2.4549,2.4558,2.4577,2.4588,2.4563,2.462,2.4625,2.4684,2.4707,2.4717,2.4729,2.4702,2.4803,2.4813,2.4822,2.4854,2.4867,2.4714,2.4714,2.4713,2.4713,0,2.456,2.4593,2.4627,2.4647,2.4665,2.4706,2.4695,2.4715,2.4701,2.4698,2.4746,2.4751,2.4776,2.4789,2.4775,2.4847,2.4834,2.4807,2.4763,2.484,2.487,2.4882,2.472,2.4718,2.4717,2.4716,0,0,2.4678,2.4691,2.4704,2.4714,2.4726,2.4751,2.4791,2.4816,2.4834,2.4849,2.4882,2.4922,2.4898,2.4911,2.4898,2.4929,2.5003,2.4898,2.4898,2.4918,2.5084,2.5104,2.5119,2.4988,2.4991,2.4992,2.5084,0,2.4764,2.4833,2.482,2.4887,2.4918,2.4888,2.4923,2.4935,2.4934,2.496,2.4958,2.4987,2.4953,2.496,2.4989,2.4988,2.5037,2.4981,2.5019,2.5021,2.5017,2.5134,2.5155,2.524,2.5095,2.5097,2.5098,0,2.4872,2.4893,2.4964,2.4973,2.4986,2.5017,2.504,2.5066,2.5079,2.5076,2.5092,2.5074,2.5114,2.5071,2.5127,2.509,2.5105,2.5107,2.511,2.5112,2.5064,2.514,2.5267,2.528,2.5117,2.5115,2.5114,0,2.4951,2.4997,2.5046,2.5055,2.5068,2.5091,2.5097,2.5108,2.5125,2.5145,2.5156,2.5181,2.5194,2.5214,2.5204,2.5173,2.5262,2.5218,2.5261,2.5262,2.528,2.5279,2.5412,2.5291,2.5291,2.529,2.529,0,2.5048,2.5092,2.5082,2.5112,2.5162,2.5147,2.5197,2.52,2.521,2.5241,2.5217,2.5246,2.5231,2.5259,2.5251,2.5299,2.5305,2.5304,2.5302,2.5306,2.5307,2.5315,2.5309,2.5294,2.5293,2.5292,2.5292,0,2.5144,2.5139,2.5191,2.5199,2.5203,2.5239,2.5246,2.5275,2.5272,2.5311,2.532,2.5316,2.5348,2.5341,2.5375,2.537,2.5431,2.5421,2.5427,2.5424,2.5468,2.5464,2.5611,2.563,2.5497,2.5498,2.5499,0,2.5206,2.524,2.5253,2.5272,2.5281,2.5311,2.5329,2.5317,2.5336,2.5356,2.5382,2.5412,2.5436,2.5489,2.5489,2.5516,2.5507,2.5556,2.551,2.5515,2.5508,2.5506,2.5509,2.5565,2.5567,2.5568,2.5569,0,2.5316,2.5312,2.5339,2.5366,2.5388,2.5408,2.5425,2.5442,2.5432,2.5455,2.5488,2.5507,2.5544,2.5574,2.56,2.5606,2.5586,2.5584,2.5595,2.56,2.5602,2.5602,2.5452,2.558,2.5579,2.5578,2.5577,2.5577,2.5397,2.5426,2.5441,2.5472,2.5484,2.5502,2.553,2.5532,2.556,2.5589,2.5581,2.5619,2.5634,2.5666,2.5676,2.5706,2.5687,2.5704,2.5708,2.5712,2.5718,2.5598,2.5711,2.571,2.571,2.571,2.5709,0,2.5506,2.5514,2.5543,2.557,2.5595,2.5575,2.5595,2.5616,2.5651,2.5666,2.5691,2.573,2.5761,2.5765,2.5794,2.5817,2.5809,2.5825,2.5823,2.5825,2.5733,2.572,2.5831,2.5831,2.5831,2.5831,2.5831,2.5831,2.5565,2.5614,2.5613,2.5669,2.5677,2.5715,2.5728,2.5745,2.5758,2.5803,2.5829,2.5832,2.5843,2.5873,2.5901,2.5901,2.5913,2.5933,2.593,2.5843,2.5831,2.582,2.5807,2.5936,2.5936,2.602,2.6021,2.6021]},{"header":{"parameterUnit":"m.s-1","parameterCategory":1,"la1":30.2991,"la2":30.254,"lo1":-89.0895,"lo2":-89.0444,"dy":0.0017,"dx":0.0017,"nx":28,"ny":28,"refTime":"2025-03-19T21:00:00:Z","depth":0,"parameterNumber":3,"parameterNumberName":"V-component_of_WINDS"},"data":[0,0,0,0,0,0,0,0,0,0,0,0,0,0,0,0,0,0,0,0,0,0,0,0,0,0,0,0,0,0,0,0,0,0,0,0,0,0,0,0,0,0,0,0,0,0,0,0,0,0,0,0,0,0,0,0,0,0,-5.5879,-5.5881,0,-5.6073,-5.6075,-5.6077,-5.6009,-5.6005,-5.6001,-5.5996,-5.6196,-5.6205,-5.6214,0,0,0,0,0,0,0,0,0,0,0,0,0,-5.5451,-5.5459,-5.5879,-5.5881,-5.5884,-5.6072,-5.6075,-5.6078,-5.601,-5.6005,-5.5999,-5.5995,-5.6193,-5.6203,-5.6215,0,0,0,0,0,0,0,0,0,0,0,0,0,-5.564,-5.5462,-5.5878,-5.5873,-5.5874,-5.6072,-5.6075,-5.6078,-5.6011,-5.6005,-5.5998,-5.5992,-5.6189,-5.6202,-5.6216,-5.6432,0,0,-5.6259,-5.6265,0,0,0,0,0,0,0,0,-5.5629,-5.5656,-5.5871,-5.5873,-5.5875,-5.601,-5.5997,-5.6197,-5.6013,-5.5959,-5.5996,-5.5989,-5.6139,-5.6157,-5.6207,-5.6441,-5.6449,-5.626,-5.6269,-5.6275,-5.6279,0,0,0,0,0,0,0,-5.5616,-5.5647,-5.5955,-5.5874,-5.5877,-5.5861,-5.588,-5.6035,-5.6083,-5.5963,-5.5959,-5.5983,-5.6139,-5.6194,-5.6211,-5.6452,-5.626,-5.6272,-5.6281,-5.6286,-5.6873,-5.688,0,0,0,0,0,0,-5.5602,-5.5636,-5.5949,-5.5961,-5.5734,-5.5873,-5.5896,-5.5973,-5.6081,-5.6091,-5.5988,-5.5979,-5.6173,-5.6195,-5.6218,-5.6478,-5.6274,-5.6288,-5.6296,-5.6866,-5.6875,-5.6882,0,0,0,0,0,0,-5.5593,-5.563,-5.5941,-5.5798,-5.5836,-5.5888,-5.5976,-5.5981,-5.6035,-5.61,-5.6108,-5.6035,-5.6169,-5.6199,-5.6379,-5.6484,-5.6294,-5.6307,-5.6857,-5.6869,-5.6879,-5.6999,0,0,0,0,0,0,-5.5581,-5.5628,-5.571,-5.58,-5.5844,-5.6099,-5.5982,-5.5989,-5.606,-5.6049,-5.6146,-5.6156,-5.6166,-5.6359,-5.6393,-5.65,-5.6317,-5.6848,-5.6862,-5.6875,-5.6986,-5.7013,-5.7036,0,0,0,0,0,-5.5566,-5.5736,-5.5714,-5.5753,-5.5948,-5.6106,-5.6131,-5.6139,-5.6068,-5.6152,-5.6193,-5.6153,-5.6467,-5.6378,-5.6416,-5.6529,-5.6842,-5.6858,-5.6874,-5.6975,-5.7008,-5.7035,0,0,0,0,0,0,-5.5657,-5.5748,-5.5725,-5.5929,-5.601,-5.6094,-5.6199,-5.6173,-5.6276,-5.6262,-5.6268,-5.629,-5.6476,-5.652,-5.6419,-5.6743,-5.6644,-5.6668,-5.6708,-5.6739,-5.6763,-5.6749,-5.6329,0,0,0,0,0,-5.5701,-5.5821,-5.5894,-5.6067,-5.6109,-5.6147,-5.6216,-5.6216,-5.63,-5.6334,-5.6388,-5.6472,-5.6589,-5.6666,-5.6778,-5.6992,-5.7013,-5.7088,-5.7113,-5.7133,-5.7155,-5.7272,-5.7307,-5.6936,-5.6936,-5.6935,0,0,-5.5793,-5.5857,-5.5933,-5.6087,-5.615,-5.6275,-5.6177,-5.6313,-5.6405,-5.6354,-5.6529,-5.6572,-5.6665,-5.6864,-5.6954,-5.6906,-5.7262,-5.7154,-5.7169,-5.718,-5.7292,-5.7327,-5.7359,-5.6947,-5.6945,-5.6943,0,0,-5.6024,-5.6085,-5.6236,-5.6301,-5.6397,-5.6421,-5.6458,-5.6546,-5.6573,-5.6747,-5.6712,-5.6822,-5.7024,-5.7093,-5.7154,-5.7412,-5.7379,-5.7448,-5.7578,-5.7692,-5.7721,-5.7747,-5.784,-5.7873,-5.7469,-5.7469,-5.7469,0,-5.6126,-5.6313,-5.6317,-5.6457,-5.6526,-5.6485,-5.6639,-5.6702,-5.683,-5.6879,-5.6823,-5.7076,-5.7136,-5.7351,-5.7414,-5.7464,-5.7507,-5.7437,-5.7717,-5.7743,-5.7767,-5.7856,-5.7891,-5.7477,-5.7476,-5.7475,-5.7474,0,-5.6434,-5.6564,-5.6675,-5.68,-5.6881,-5.7027,-5.7054,-5.7136,-5.7129,-5.7159,-5.7338,-5.7408,-5.7534,-5.7584,-5.7578,-5.7799,-5.7766,-5.7714,-5.7615,-5.781,-5.7894,-5.7928,-5.7488,-5.7485,-5.7483,-5.7481,0,0,-5.6729,-5.6854,-5.6895,-5.6951,-5.7054,-5.7155,-5.7299,-5.7422,-5.7493,-5.7582,-5.7704,-5.7876,-5.7828,-5.7898,-5.7899,-5.7999,-5.82,-5.7935,-5.7937,-5.7983,-5.8449,-5.8488,-5.8528,-5.8179,-5.8185,-5.819,-5.8441,0,-5.6969,-5.7223,-5.7231,-5.7463,-5.7583,-5.7547,-5.7672,-5.7749,-5.7782,-5.7889,-5.7924,-5.8047,-5.7974,-5.8016,-5.8113,-5.8155,-5.8294,-5.8137,-5.8293,-5.8298,-5.8272,-5.8571,-5.8613,-5.8846,-5.8474,-5.8479,-5.8483,0,-5.7284,-5.7384,-5.7627,-5.7714,-5.7765,-5.7878,-5.7991,-5.8094,-5.8181,-5.8197,-5.8275,-5.8262,-5.8409,-5.8305,-5.8509,-5.8402,-5.8466,-5.8496,-5.8506,-5.8521,-5.8403,-5.8596,-5.8921,-5.8956,-5.8535,-5.8531,-5.8527,0,-5.7476,-5.7671,-5.7842,-5.7891,-5.7996,-5.8076,-5.8124,-5.8204,-5.8278,-5.8377,-5.8425,-5.854,-5.8603,-5.8693,-5.8711,-5.8633,-5.8916,-5.8812,-5.8935,-5.8935,-5.8997,-5.8993,-5.9338,-5.9037,-5.9036,-5.9035,-5.9035,0,-5.7744,-5.7895,-5.793,-5.8035,-5.8203,-5.8212,-5.8378,-5.8419,-5.8491,-5.8605,-5.8579,-5.8686,-5.8703,-5.8814,-5.8829,-5.8997,-5.9025,-5.9043,-5.9045,-5.9046,-5.9044,-5.9089,-5.9074,-5.9045,-5.9043,-5.9041,-5.9039,0,-5.7987,-5.8016,-5.8201,-5.8285,-5.831,-5.843,-5.8502,-5.8604,-5.8633,-5.8776,-5.8811,-5.8857,-5.8986,-5.9013,-5.9166,-5.9176,-5.9376,-5.9362,-5.9347,-5.9346,-5.9467,-5.9456,-5.9854,-5.9907,-5.957,-5.9573,-5.9576,0,-5.8157,-5.8272,-5.8369,-5.8443,-5.8494,-5.8614,-5.8689,-5.8701,-5.878,-5.8888,-5.8977,-5.9103,-5.9205,-5.9414,-5.9462,-5.9579,-5.9568,-5.9699,-5.9585,-5.9583,-5.9571,-5.9565,-5.9577,-5.9721,-5.9725,-5.9728,-5.973,0,-5.8456,-5.8465,-5.8573,-5.8688,-5.8778,-5.8869,-5.8955,-5.9017,-5.9041,-5.9131,-5.9263,-5.9343,-5.9499,-5.9626,-5.9743,-5.9792,-5.9767,-5.9766,-5.98,-5.9803,-5.979,-5.98,-5.9407,-5.9757,-5.9754,-5.9752,-5.9751,-5.975,-5.8668,-5.8769,-5.8853,-5.8976,-5.9042,-5.9123,-5.9223,-5.9264,-5.9375,-5.9503,-5.9504,-5.9648,-5.9733,-5.9887,-5.9944,-6.0057,-6.0016,-6.0066,-6.0079,-6.0092,-6.0103,-5.9771,-6.0079,-6.0078,-6.0077,-6.0077,-6.0076,0,-5.8967,-5.9019,-5.9131,-5.9253,-5.9349,-5.9316,-5.9409,-5.9493,-5.962,-5.9701,-5.9802,-5.9954,-6.0077,-6.0134,-6.0255,-6.0335,-6.0326,-6.0366,-6.0361,-6.0373,-6.0133,-6.0091,-6.0371,-6.0371,-6.0371,-6.0371,-6.0371,-6.0371,-5.9133,-5.9303,-5.9322,-5.9524,-5.9575,-5.9716,-5.9773,-5.9848,-5.9913,-6.0084,-6.0185,-6.0222,-6.0294,-6.042,-6.0531,-6.0544,-6.0591,-6.0637,-6.0645,-6.042,-6.039,-6.0361,-6.0322,-6.0647,-6.0647,-6.0876,-6.0879,-6.088]}]]